Flag for Denmark Weather past 2 weeks in Horsens, Denmark

45 °F

Passing clouds.

Feels Like: 38 °F
Forecast: 39 / 43 °F
Wind: 13 mph from Southwest

Location: Billund Lufthavn

Current Time: Nov 29, 2015 at 6:40:44 AM

Latest Report: Nov 29, 2015 at 5:50 AM

Visibility: N/A

Pressure: 29.33 "Hg

Humidity: 81%

Dew point: 39 °F

Location of HorsensLocation

Historic Weather in Horsens — Graph


Horsens temperature yesterday

Maximum temperature yesterday: 45 °F (at 2:50 AM)
Minimum temperature yesterday: 39 °F (at 10:20 AM)
Average temperature yesterday: 41 °F

Past Weeks' High & Low Weather Summary

High55 °F (Nov 16, 11:50 AM)100% (Nov 15, 5:20 AM)30.07 "Hg (Nov 15, 5:20 AM)
Low16 °F (Nov 23, 8:20 AM)70% (Nov 23, 11:50 AM)29.09 "Hg (Nov 18, 2:20 AM)
Average41 °F91%29.61 "Hg
* Reported Nov 14 5:50 AM — Nov 29 5:20 AM, Horsens, Weather by CustomWeather, © 2015

Note: Actual official high and low records may vary slightly from our data, if they occured in-between our weather recording intervals... More about our weather records


Horsens weather history for previous 24 hours

Time TempWeatherWind HumidityBarometerVisibility
5:20 AM
Sun, Nov 29
45 °FPassing clouds.10 mph81%29.30 "HgN/A
4:50 AM45 °FPassing clouds.10 mph87%29.30 "HgN/A
4:20 AM45 °FSprinkles. Passing clouds.9 mph81%29.30 "HgN/A
3:50 AM43 °FPartly cloudy.8 mph93%29.30 "HgN/A
3:20 AM43 °FSprinkles. Partly cloudy.13 mph93%29.33 "HgN/A
2:50 AM41 °FRain showers. Passing clouds.12 mph100%29.33 "Hg5 mi
2:20 AM41 °FRain. Passing clouds.14 mph93%29.33 "HgN/A
1:50 AM43 °FRain. Passing clouds.17 mph93%29.33 "HgN/A
1:20 AM43 °FRain. Low clouds.20 mph93%29.33 "Hg3 mi
12:50 AM41 °FRain. Low clouds.18 mph93%29.36 "Hg5 mi
12:20 AM41 °FLight rain. Low clouds.21 mph93%29.39 "Hg6 mi
11:50 PM
Sat, Nov 28
41 °FLight rain. Passing clouds.22 mph93%29.39 "HgN/A
11:20 PM43 °FSprinkles. Overcast.22 mph87%29.42 "Hg6 mi
10:50 PM43 °FSprinkles. Passing clouds.17 mph87%29.45 "HgN/A
10:20 PM43 °FSprinkles. Passing clouds.17 mph87%29.47 "HgN/A
9:20 PM41 °FQuite cool.12 mph87%29.50 "HgN/A
8:50 PM41 °FPassing clouds.10 mph87%29.53 "HgN/A
8:20 PM41 °FSprinkles. Passing clouds.13 mph87%29.53 "HgN/A
7:50 PM41 °FPassing clouds.9 mph81%29.56 "HgN/A
7:20 PM41 °FPassing clouds.8 mph81%29.56 "HgN/A
6:50 PM39 °FPassing clouds.7 mph87%29.56 "HgN/A
6:20 PM39 °FSprinkles. Passing clouds.9 mph87%29.59 "HgN/A
5:59 PM41 °FSprinkles. Passing clouds.10 mph76%29.59 "HgN/A
5:20 PM39 °FPassing clouds.7 mph81%29.59 "HgN/A
4:50 PM39 °FPassing clouds.7 mph87%29.59 "HgN/A
4:20 PM39 °FScattered showers. Passing clouds.7 mph87%29.59 "HgN/A
3:50 PM41 °FSprinkles. Scattered clouds.8 mph81%29.59 "HgN/A
3:20 PM41 °FScattered showers. Passing clouds.10 mph81%29.59 "HgN/A
2:50 PM41 °FScattered showers. Passing clouds.9 mph81%29.59 "HgN/A
2:20 PM41 °FScattered showers. Passing clouds.12 mph81%29.59 "HgN/A
1:50 PM41 °FScattered showers. Scattered clouds.10 mph81%29.59 "HgN/A
1:20 PM43 °FScattered showers. Scattered clouds.12 mph76%29.59 "HgN/A
12:50 PM43 °FScattered clouds.9 mph81%29.56 "HgN/A
12:20 PM43 °FQuite cool.9 mph81%29.56 "HgN/A
11:50 AM43 °FPassing clouds.12 mph76%29.56 "HgN/A
11:20 AM41 °FQuite cool.6 mph87%29.56 "HgN/A
10:50 AM41 °FPartly sunny.6 mph87%29.53 "HgN/A
10:20 AM39 °FPartly sunny.8 mph93%29.53 "HgN/A
9:50 AM41 °FSprinkles. Broken clouds.13 mph87%29.53 "HgN/A
9:20 AM41 °FSprinkles. Partly sunny.10 mph87%29.53 "HgN/A
8:50 AM41 °FRain showers. Overcast.9 mph93%29.50 "HgN/A
7:20 AM41 °FLight rain. Mostly cloudy.13 mph93%29.45 "HgN/A
6:50 AM41 °FLight rain. Overcast.14 mph93%29.45 "HgN/A
6:20 AM41 °FRain. Passing clouds.17 mph93%29.42 "Hg4 mi
Weather by CustomWeather, © 2015

See weather overviewHow to use our weather pages